Location: Tierz
(42.1336°N, 0.3549°W)
Time: 15:53:05
(UTC+00:00)

Meteor 2-21 Rocket - Pass Details

Date: 29 October 2020
Orbit: 935 x 968 km, 82.5° (Epoch: 25 November)

Event Time Altitude Azimuth Distance (km) Brightness Sun altitude
Rises 17:14:42 0° 354° (N) 3,652 7.4 -3.7°
Reaches altitude 10° 17:17:16 10° 358° (N) 2,698 6.7 -4.2°
Maximum altitude 17:23:23 64° 80° (E) 1,051 4.5 -5.3°
Drops below altitude 10° 17:29:24 10° 161° (SSE) 2,657 6.7 -6.3°
Sets 17:31:54 0° 164° (SSE) 3,593 7.4 -6.8°
